Vorticity
nan nan nan nan nan nan nan nan nan nan nan nan nan nan nan nan nan nan nan nan nan nan nan nan nan nan nan nan nan nan nan nan nan nan nan nan nan nan nan nan nan nan nan nan
nan 11 11 9 11 11 8 6 8 10 11 6 9 11 16 14 9 6 4 5 6 6 11 11 12 11 9 7 6 7 5 6 5 6 8 9 10 8 9 9 10 8 7 nan
nan 8 11 8 8 9 9 10 7 10 4 5 7 8 10 11 11 11 11 10 8 10 7 10 10 9 8 8 8 8 7 5 5 6 6 7 8 9 8 9 10 9 9 nan
nan 11 9 8 5 9 8 11 7 6 7 9 5 9 10 13 9 10 10 8 8 10 10 11 7 8 8 8 7 8 8 6 6 6 7 7 7 7 8 9 7 8 10 nan
nan 9 9 9 11 7 13 15 9 2 5 9 5 14 9 14 10 8 12 7 6 9 10 10 9 8 7 8 9 9 9 7 8 7 6 5 6 7 9 8 8 9 11 nan
nan 7 10 7 16 7 8 8 8 12 8 10 17 4 6 14 15 7 9 14 7 8 9 8 9 9 9 8 10 11 10 7 7 7 7 8 6 5 6 8 10 11 10 nan
nan 10 10 12 6 7 7 7 5 7 12 8 12 11 7 5 20 24 12 9 8 5 9 8 8 8 9 8 7 8 9 8 7 8 7 8 8 8 7 7 9 9 7 nan
nan 9 13 9 12 11 3 5 7 12 6 9 7 8 9 13 18 20 20 14 9 5 9 9 6 7 8 7 6 7 7 7 7 7 7 8 8 8 9 8 9 9 8 nan
nan 8 9 9 11 10 8 9 9 5 9 14 3 4 9 13 17 12 17 16 11 7 7 10 7 7 8 9 8 7 7 7 8 6 6 8 8 9 9 9 7 9 8 nan
nan 12 9 10 9 7 16 5 5 11 14 5 8 12 11 7 10 8 10 13 11 11 7 9 12 10 10 9 11 8 9 10 8 8 7 9 8 7 9 10 9 7 7 nan
nan 9 9 10 11 6 5 6 11 16 9 11 9 10 15 9 12 13 4 10 12 11 10 8 15 14 13 13 15 12 11 10 10 9 9 9 10 8 9 8 9 8 9 nan
nan 5 14 6 6 12 11 10 8 9 7 8 11 6 14 17 14 13 11 10 10 10 10 10 10 12 15 16 9 6 7 11 11 12 11 9 8 10 8 8 9 9 9 nan
nan 3 5 8 13 16 13 11 8 8 15 12 3 6 7 15 18 12 12 10 12 5 6 11 8 14 15 8 2 6 7 12 14 12 9 9 9 9 9 9 9 8 10 nan
nan 16 14 11 5 3 8 10 10 6 7 13 2 6 7 15 13 7 11 12 13 10 6 1 11 15 10 8 3 6 9 17 14 10 9 9 9 9 9 9 9 9 10 nan
nan 11 9 9 11 8 8 10 10 5 8 7 11 7 13 18 16 11 7 8 8 10 8 9 10 13 11 7 2 5 8 6 12 10 9 10 10 10 10 10 9 11 11 nan
nan 12 12 12 12 11 10 11 8 7 10 9 15 10 15 12 14 16 13 9 9 10 6 7 10 16 14 4 -0 -1 10 12 11 10 9 9 11 10 10 10 11 10 9 nan
nan 12 9 9 9 10 9 13 11 12 10 11 10 10 6 14 12 12 12 10 10 11 11 9 11 12 14 13 8 6 9 9 10 9 10 10 11 10 10 10 10 9 9 nan
nan 9 10 11 10 12 8 11 13 9 9 6 7 21 13 5 6 12 18 16 10 11 12 10 11 13 14 14 10 11 12 9 11 9 10 10 11 10 10 10 9 9 10 nan
nan 8 10 13 10 5 8 10 14 13 12 14 16 13 13 8 6 4 16 19 15 11 12 15 11 11 18 14 12 8 9 13 8 9 9 10 9 9 9 9 9 9 9 nan
nan 12 11 9 10 11 10 2 10 12 5 12 21 15 7 -1 4 12 9 12 14 13 17 19 16 12 11 13 13 11 8 7 8 10 9 9 10 10 10 10 8 9 11 nan
nan 14 10 10 8 8 10 12 19 13 5 7 21 16 1 6 11 17 10 9 9 11 21 17 8 10 12 14 12 10 10 8 8 9 11 11 11 10 10 9 9 10 9 nan
nan 10 7 9 9 10 8 20 15 4 9 13 10 8 16 20 16 8 7 11 8 7 -4 11 12 9 7 10 13 13 8 9 13 12 11 10 10 10 11 10 8 9 10 nan
nan 12 12 12 5 6 12 12 4 12 12 14 13 11 15 5 13 13 8 4 0 4 9 6 6 13 15 11 12 11 10 12 9 10 10 10 10 11 11 9 9 9 10 nan
nan 12 9 7 12 10 10 8 11 9 7 15 19 17 11 15 10 5 10 10 11 12 16 5 17 11 8 9 11 13 16 11 10 9 9 10 9 8 11 13 11 11 11 nan
nan 7 14 8 9 12 13 11 11 8 6 12 15 10 7 17 16 12 11 7 6 8 11 14 14 16 11 10 11 11 13 16 14 10 9 9 10 10 9 10 15 16 15 nan
nan nan nan nan nan nan nan nan nan nan nan nan nan nan nan nan nan nan nan nan nan nan nan nan nan nan nan nan nan nan nan nan nan nan nan nan nan nan nan nan nan nan nan nan
CAPE
0 0 0 0 0 0 36 74 295 263 168 524 560 209 59 89 64 25 0 0 0 0 0 0 0 0 0 170 321 362 230 262 95 502 943 1046 1019 880 645 169 0 95 6 561
0 0 0 0 0 0 0 45 250 207 304 254 109 284 6 23 69 11 0 1 0 0 0 0 0 0 25 180 342 398 359 292 435 834 852 992 1125 893 787 932 926 665 174 71
0 0 0 0 0 0 0 18 0 146 343 143 264 299 507 278 10 0 0 0 0 0 0 0 0 0 92 200 262 423 426 459 702 1007 962 774 84 276 604 687 688 477 1021 787
0 0 0 0 0 0 0 1 3 177 190 187 320 305 262 255 363 50 0 0 0 0 0 0 0 0 127 218 217 516 523 689 872 886 1255 1147 872 857 444 380 264 276 809 1438
0 0 0 0 0 0 0 11 4 60 16 4 93 133 106 8 276 300 72 2 0 0 0 0 0 26 144 254 316 611 751 906 1008 973 1107 1353 1036 631 529 36 2 13 1564 1616
0 0 0 0 0 0 0 0 0 0 0 17 5 77 25 82 218 279 191 58 36 19 18 1 10 35 92 246 361 858 1028 1032 1024 924 1155 1149 1112 760 898 1289 1260 157 1831 1618
0 0 0 0 0 0 0 0 0 0 47 58 0 27 8 0 4 7 346 170 135 83 66 39 32 178 100 157 257 934 1047 1118 945 929 1192 1287 1108 906 1149 1344 1509 1146 1780 1033
0 0 0 0 0 0 0 0 0 0 0 0 0 0 0 0 0 203 238 173 212 120 92 145 129 279 276 233 290 590 1086 1019 906 865 1077 1409 1484 1048 1185 1343 1534 1511 1699 1301
0 0 0 0 0 0 0 0 0 0 0 0 0 0 0 0 22 59 206 96 299 242 127 203 243 225 527 447 437 491 1066 1030 944 915 939 1388 1655 1854 1569 1570 1418 1478 1562 1699
0 0 0 0 0 0 0 0 0 0 0 0 0 0 0 3 52 40 50 308 385 350 239 222 372 372 464 674 638 675 719 1141 1211 1127 1174 1282 1493 1758 2035 1836 1593 1220 1449 1597
0 0 0 0 0 0 0 0 0 0 0 0 0 0 0 0 5 8 53 42 215 233 316 339 334 445 321 750 921 1003 961 1020 1432 1604 1566 1517 1674 1758 1888 2024 1883 1734 1617 1507
0 0 0 0 0 0 0 0 0 0 0 0 0 0 0 0 0 0 0 1 98 275 302 443 482 381 320 1167 344 197 876 1526 1458 1649 2086 1914 1912 1970 2162 2157 2241 2245 1827 1594
0 0 0 0 0 0 0 0 0 0 0 0 0 0 0 0 0 0 0 0 101 241 374 398 430 248 519 79 23 0 0 26 1790 1887 2060 2342 2478 2323 2372 2310 2265 2171 2136 1895
0 0 0 0 0 0 0 0 0 0 0 0 0 0 0 0 0 0 0 0 120 245 235 197 257 489 11 60 0 0 0 6 1816 2092 2113 2208 2499 2505 2515 2387 2282 2201 2025 1946
0 0 0 0 0 0 0 0 0 0 0 0 0 0 0 0 0 0 10 19 65 364 47 0 147 271 239 11 0 0 0 0 2006 2172 2332 2361 2406 2383 2231 1848 1420 1752 1877 2000
0 0 0 0 0 0 0 0 0 0 0 0 0 0 0 0 0 0 78 234 207 284 321 75 0 125 1050 70 17 6 8 728 2022 2199 2387 2401 2400 2216 2092 1839 1506 1188 1364 2566
0 0 0 0 0 0 0 0 0 0 0 0 0 0 3 314 93 33 93 296 335 323 244 0 1 15 588 1212 129 82 601 1567 1594 1758 1953 1985 1727 1472 973 872 1052 1601 2253 2259
0 0 0 0 0 0 0 0 0 0 0 0 0 0 73 440 693 802 469 275 304 177 60 5 1 337 633 1139 1314 1479 720 1320 1484 1752 1604 1272 988 878 1669 2182 2302 2513 2395 2293
0 0 0 0 0 0 0 0 12 12 44 70 0 224 830 937 1131 1246 953 902 635 1092 1158 364 495 902 1516 1609 1798 1685 1619 1565 1516 1494 1396 1454 1643 1987 2311 2646 2466 2329 2095 1116
0 0 0 0 0 0 0 62 46 11 102 78 237 726 947 704 965 1099 1008 1187 1191 1221 1676 2138 1984 1840 1795 1909 1872 1795 1835 1712 1520 1544 1714 1992 2059 2382 2611 2365 1553 1018 659 758
0 0 0 0 0 0 0 70 13 62 8 0 69 598 661 452 313 729 1044 1225 1049 1001 1208 2177 2226 2083 2181 2113 1912 1822 1785 1737 1606 1852 2249 2606 2777 2668 1923 831 712 888 918 871
0 0 0 0 0 0 2 3 12 2 0 0 10 7 33 162 801 1037 837 966 1271 1699 1998 1325 2458 2651 2404 2193 1981 2029 1931 2156 2462 2451 2423 2185 1643 845 635 887 1037 791 810 947
12 0 0 0 1 0 3 0 0 0 6 38 64 31 48 429 917 931 515 463 579 539 374 51 158 2020 2290 2187 2216 2409 2317 2464 1659 1131 1003 653 660 776 954 953 487 855 837 525
0 0 0 2 13 36 33 20 2 6 56 22 13 7 23 95 379 198 3 21 27 5 174 347 740 1850 1796 1933 2217 2247 2145 1229 724 556 392 558 1005 867 643 982 1064 209 0 0
0 0 0 0 0 1 2 30 134 21 22 165 14 0 0 3 25 1 0 64 57 38 130 49 290 1191 1503 1420 1419 1396 1068 826 586 481 517 651 553 564 0 0 0 0 0 0
0 0 0 7 0 0 0 131 157 77 73 351 353 106 0 0 0 0 0 13 22 10 7 249 1208 1292 1156 1090 578 238 224 381 507 881 876 769 103 0 0 0 0 0 0 0